F4NFR-13 Weather Reports


time (UTC)temp
F
wind
direction
speed
knots
gust
knots
rain 1hr
in
rain 24hr
in
rain mn
in
humidity
%
barometer
mb
20260503021616 55 246 0.9 0.9 0.00 0.00 0.19 99 1012.7
20260503021113 55 29 0.0 0.9 0.00 0.00 0.18 99 1012.3
20260503020611 55 239 0.9 0.9 0.00 0.00 0.18 99 1012.3
20260503020109 55 347 0.9 0.9 0.00 0.00 0.18 99 1012.7
20260503015606 55 227 1.7 3.5 0.02 0.00 0.18 99 1012.7
20260503014602 55 228 3.5 5.2 0.01 0.00 0.18 99 1013.0
20260503014100 55 234 2.6 3.5 0.01 0.00 0.18 98 1013.0
20260503013557 55 237 2.6 2.6 0.01 0.00 0.18 98 1013.0
20260503013055 55 191 2.6 5.2 0.00 0.00 0.17 98 1013.0
20260503012552 55 211 3.5 5.2 0.00 0.00 0.17 98 1012.7
20260503012050 55 215 3.5 3.5 0.00 0.00 0.17 97 1012.7
20260503011548 55 242 2.6 4.3 0.00 0.00 0.17 97 1013.0
20260503011045 57 217 2.6 2.6 0.00 0.00 0.17 97 1013.0
20260503010543 57 15 4.3 5.2 0.00 0.00 0.17 97 1013.0
20260503010041 57 274 0.9 0.9 0.16 0.00 0.16 97 1013.0
20260503005539 57 180 2.6 7.0 0.14 0.00 0.14 97 1013.4
20260503005037 57 229 3.5 4.3 0.13 0.00 0.13 96 1013.4
20260503004535 57 233 3.5 5.2 0.13 0.00 0.13 95 1013.0
20260503004033 59 272 5.2 7.0 0.13 0.00 0.13 95 1013.4
20260503003531 59 239 2.6 5.2 0.06 0.00 0.06 94 1013.4
20260503002024 59 273 2.6 2.6 0.01 0.00 0.01 88 1013.4
20260503001522 59 191 2.6 5.2 0.01 0.00 0.01 86 1013.4
20260503001019 61 233 1.7 3.5 0.00 0.00 0.00 83 1013.0
20260503000517 61 160 1.7 2.6 0.00 0.00 0.00 82 1013.4
20260503000015 61 218 2.6 5.2 0.00 0.00 0.00 82 1013.4
20260502235512 61 246 1.7 5.2 0.00 0.00 0.00 82 1013.4
20260502235010 59 224 1.7 1.7 0.00 0.00 0.00 82 1013.4
20260502234507 59 201 2.6 3.5 0.00 0.00 0.00 82 1013.4
20260502234005 59 203 1.7 3.5 0.00 0.00 0.00 82 1013.4
20260502233503 59 194 1.7 2.6 0.00 0.00 0.00 82 1013.4
20260502233000 59 241 3.5 3.5 0.00 0.00 0.00 82 1013.4
20260502232458 59 166 1.7 2.6 0.00 0.00 0.00 82 1013.4
20260502231956 59 237 1.7 1.7 0.00 0.00 0.00 82 1013.4
20260502231453 59 165 0.9 0.9 0.00 0.00 0.00 83 1013.4
20260502230951 59 201 1.7 2.6 0.00 0.00 0.00 82 1013.4
20260502230448 59 36 0.0 0.0 0.00 0.00 0.00 82 1013.4
20260502225946 59 215 1.7 1.7 0.00 0.00 0.00 82 1013.7
20260502225444 59 206 1.7 2.6 0.00 0.00 0.00 81 1013.7
20260502224942 61 183 1.7 1.7 0.00 0.00 0.00 81 1013.7
20260502224439 59 134 1.7 3.5 0.00 0.00 0.00 82 1014.0
20260502223937 61 178 1.7 5.2 0.00 0.00 0.00 82 1014.0
20260502223434 61 218 1.7 4.3 0.00 0.00 0.00 82 1014.0
20260502222932 61 248 0.0 0.9 0.00 0.00 0.00 82 1014.0
20260502222429 61 187 0.9 1.7 0.00 0.00 0.00 83 1014.0
20260502221927 61 195 3.5 5.2 0.00 0.00 0.00 82 1014.0
20260502220922 61 79 1.7 1.7 0.00 0.00 0.00 82 1014.0
20260502220420 61 193 2.6 2.6 0.00 0.00 0.00 82 1014.0
20260502215917 61 216 3.5 6.1 0.00 0.00 0.06 81 1014.0
20260502215415 61 225 1.7 2.6 0.00 0.00 0.06 81 1014.0
20260502214912 61 219 2.6 3.5 0.00 0.00 0.06 81 1013.7
20260502214410 61 189 2.6 3.5 0.00 0.00 0.06 81 1013.7
20260502213908 61 106 0.9 1.7 0.00 0.00 0.06 82 1013.7
20260502213405 61 188 1.7 1.7 0.00 0.00 0.06 82 1014.0
20260502212401 61 186 0.9 0.9 0.00 0.00 0.06 82 1014.0
20260502211858 61 264 1.7 2.6 0.00 0.00 0.06 82 1014.0
20260502211355 61 172 1.7 3.5 0.00 0.00 0.06 80 1014.0
20260502210853 61 200 2.6 3.5 0.00 0.00 0.06 79 1014.4
20260502210350 61 180 1.7 2.6 0.00 0.00 0.06 78 1014.0
20260502205848 61 244 1.7 2.6 0.00 0.00 0.06 77 1014.0
20260502205346 63 188 2.6 3.5 0.00 0.00 0.06 76 1014.0
20260502204844 63 215 1.7 2.6 0.00 0.00 0.06 75 1014.0
20260502204341 63 279 0.9 1.7 0.00 0.00 0.06 74 1014.0
20260502203839 63 220 1.7 2.6 0.00 0.00 0.06 72 1014.0
20260502203336 63 270 0.9 1.7 0.00 0.00 0.06 73 1014.0
20260502201829 63 189 1.7 1.7 0.00 0.00 0.06 72 1014.4
20260502201326 63 193 1.7 2.6 0.00 0.00 0.06 72 1014.4
20260502200824 63 357 0.0 0.0 0.00 0.00 0.06 73 1014.4
20260502200322 63 247 1.7 1.7 0.00 0.00 0.06 73 1014.4
20260502195819 63 208 1.7 2.6 0.00 0.00 0.06 73 1014.4
20260502195317 63 222 1.7 1.7 0.00 0.00 0.06 74 1014.4
20260502194815 63 243 2.6 2.6 0.00 0.00 0.06 74 1014.4
20260502193810 64 192 1.7 2.6 0.00 0.00 0.06 75 1014.4
20260502193308 63 254 0.9 2.6 0.00 0.00 0.06 76 1014.4
20260502192305 64 287 2.6 2.6 0.00 0.00 0.06 83 1014.4
20260502191258 64 193 1.7 3.5 0.00 0.00 0.06 84 1014.4
20260502190756 64 266 3.5 5.2 0.00 0.00 0.06 82 1014.4
20260502185631 64 204 1.7 2.6 0.00 0.00 0.06 84 1014.4
20260502185129 64 262 0.9 1.7 0.00 0.00 0.06 83 1014.4
20260502184627 64 217 1.7 3.5 0.00 0.00 0.06 83 1014.4
20260502184124 64 218 1.7 5.2 0.00 0.00 0.06 84 1014.4
20260502183622 64 260 0.9 0.9 0.00 0.00 0.06 86 1014.0
20260502183120 64 181 0.9 0.9 0.00 0.00 0.06 85 1014.0
20260502182618 64 262 1.7 2.6 0.00 0.00 0.06 85 1014.0
20260502182115 64 168 0.9 0.9 0.00 0.00 0.06 84 1014.0
20260502181110 64 251 0.9 0.9 0.00 0.00 0.06 88 1014.0
20260502180608 64 346 0.0 0.0 0.00 0.00 0.06 88 1014.0
20260502180106 64 93 0.9 0.9 0.00 0.00 0.06 88 1014.0
20260502164029 64 113 1.7 1.7 0.02 0.00 0.06 87 1014.7
20260502163527 64 101 0.9 0.9 0.02 0.00 0.06 87 1014.7
20260502163025 64 69 0.9 0.9 0.02 0.00 0.06 87 1014.7
20260502162523 64 110 0.9 1.7 0.02 0.00 0.06 86 1015.0
20260502162020 64 151 2.6 3.5 0.02 0.00 0.06 86 1015.0
20260502161015 64 197 5.2 6.1 0.01 0.00 0.05 83 1015.4
20260502160513 64 109 4.3 8.7 0.00 0.00 0.04 80 1015.4
20260502151951 70 123 5.2 5.2 0.00 0.00 0.03 65 1015.4
20260502151449 70 114 5.2 5.2 0.00 0.00 0.03 64 1015.7
20260502150946 70 158 6.1 9.6 0.00 0.00 0.03 62 1016.1
20260502150443 70 139 6.1 7.8 0.00 0.00 0.03 62 1016.1
20260502130347 72 110 0.9 2.6 0.00 0.00 0.03 61 1017.8
20260502103158 66 156 3.5 4.3 0.00 0.00 0.03 57 1019.8
20260502102153 66 111 0.9 2.6 0.00 0.00 0.03 57 1019.8
20260502091024 64 44 1.7 1.7 0.00 0.00 0.03 54 1020.5
20260502070629 57 8 0.0 0.0 0.00 0.00 0.03 93 1021.1
20260502065626 55 168 2.6 2.6 0.00 0.00 0.03 93 1021.1
20260502065441 55 179 3.5 4.3 0.00 0.00 0.03 93 1021.1
20260502064551 55 214 1.7 2.6 0.00 0.00 0.03 93 1021.1
20260502063741 55 17 0.0 0.0 0.00 0.00 0.03 96 1020.8
20260502063648 55 354 0.0 0.9 0.00 0.00 0.03 95 1008.8
20260502062646 55 206 2.6 6.1 0.00 0.00 0.03 98 1008.8
20260502062425 55 179 1.7 2.6 0.00 0.00 0.03 99 1008.8
20260502052112 72 0 0.0 0.0 0.00 0.00 0.00 56 1020.4
20260502051112 72 0 0.0 0.0 0.00 0.00 0.00 57 1020.4
20260502045917 72 0 0.0 0.0 0.00 0.00 1.17 57 1020.3
20260502044916 71 0 0.0 0.0 0.00 0.00 1.17 57 1020.2